Philip, SD

8:14 PM MST on December 16, 2017 (GMT -0700)
Philip

Weather History for KPHP - October, 2013

Change the Weather History Date:

Wednesday, October 30, 2013

  Actual Average Record
Temperature  
Mean Temperature 34 °F 42 °F  
Max Temperature 37 °F 56 °F 89 °F (1950)
Min Temperature 30 °F 28 °F -3 °F (1991)
Degree Days  
Heating Degree Days 31 23  
Month to date heating degree days 497 494  
Since 1 July heating degree days 560 680  
Cooling Degree Days 0 0  
Month to date cooling degree days 0 0  
Year to date cooling degree days 945 814  
Moisture  
Dew Point 30 °F    
Average Humidity 91    
Maximum Humidity 100    
Minimum Humidity 82    
Precipitation  
Precipitation T in 0.04 in 0.30 in (1989)
Month to date precipitation 3.87 1.40  
Year to date precipitation 14.86 16.27  
Sea Level Pressure  
Sea Level Pressure 29.90 in    
Wind  
Wind Speed 4 mph (SSW)    
Max Wind Speed 12 mph    
Max Gust Speed 14 mph    
Visibility 8 miles    
Events Rain    
T = Trace of Precipitation, MM = Missing Value Source: NWS Daily Summary

Daily Weather History Graph

Daily Weather History Graph

Search for Another Location

Airport or City:

Trip Planner

Search our weather history database for the weather conditions in past years. The results will help you decide how hot, cold, wet, or windy it might be!

Date:

Astronomy

Oct. 30, 2013 Rise Set
Actual Time 7:20 AM MDT 5:38 PM MDT
Civil Twilight 6:50 AM MDT 6:08 PM MDT
Nautical Twilight 6:16 AM MDT 6:42 PM MDT
Astronomical Twilight 5:43 AM MDT 7:16 PM MDT
Moon 3:03 AM MDT (10/30) 3:32 PM MDT (10/30)
Length of Visible Light 11h 17m
Length of Day
10h 18m
Waning Crescent, 16% of the Moon is Illuminated
Oct 30
Waning Crescent
Nov 3
New
Nov 9
First Quarter
Nov 17
Full
Nov 25
Last Quarter

Hourly Weather History & Observations

Time (MDT) Temp. Windchill Dew Point Humidity Pressure Visibility Wind Dir Wind Speed Gust Speed Precip Events Conditions
12:55 AM 30.0 °F - 28.0 °F 92% 30.05 in 10.0 mi Calm Calm - N/A   Overcast
1:55 AM 30.0 °F 26.5 °F 27.0 °F 88% 30.05 in 10.0 mi SSW 3.5 mph - N/A   Overcast
2:55 AM 30.0 °F 25.2 °F 28.0 °F 92% 30.05 in 10.0 mi SW 4.6 mph - N/A   Overcast
3:55 AM 30.0 °F - 28.0 °F 92% 30.00 in 10.0 mi Calm Calm - N/A   Overcast
4:55 AM 30.0 °F - 28.0 °F 92% 29.99 in 8.0 mi Calm Calm - N/A   Overcast
5:55 AM 30.0 °F 23.2 °F 28.0 °F 92% 29.96 in 4.0 mi ENE 6.9 mph - N/A   Overcast
6:55 AM 30.9 °F 22.2 °F 28.0 °F 89% 29.96 in 6.0 mi East 10.4 mph - N/A   Overcast
7:04 AM 30.2 °F 22.6 °F 28.4 °F 93% 29.92 in 1.8 mi ESE 8.1 mph - N/A   Overcast
7:15 AM 30.2 °F 21.9 °F 28.4 °F 93% 29.95 in 3.0 mi South 9.2 mph - N/A   Overcast
7:55 AM 30.9 °F 27.5 °F 30.0 °F 96% 29.98 in 2.5 mi SSE 3.5 mph - N/A   Overcast
8:12 AM 30.2 °F - 28.4 °F 93% 29.91 in 1.8 mi Calm Calm - N/A   Overcast
8:17 AM 30.2 °F 25.4 °F 28.4 °F 93% 29.92 in 3.0 mi SE 4.6 mph - N/A   Overcast
8:55 AM 30.9 °F 24.3 °F 28.9 °F 92% 29.97 in 10.0 mi ESE 6.9 mph - N/A   Overcast
9:04 AM 30.2 °F 26.7 °F 28.4 °F 93% 29.92 in 10.0 mi SSE 3.5 mph - N/A   Overcast
9:55 AM 32.0 °F - 28.9 °F 88% 29.95 in 10.0 mi Calm Calm - N/A   Overcast
10:55 AM 32.0 °F 27.5 °F 30.0 °F 92% 29.93 in 10.0 mi South 4.6 mph - N/A   Overcast
11:55 AM 34.0 °F - 30.0 °F 85% 29.91 in 10.0 mi Calm Calm - N/A   Overcast
12:55 PM 35.1 °F - 30.9 °F 85% 29.87 in 10.0 mi Calm Calm - N/A   Overcast
1:55 PM 36.0 °F - 32.0 °F 86% 29.85 in 10.0 mi Calm Calm - N/A   Overcast
2:14 PM 35.6 °F - 30.2 °F 81% 29.79 in 10.0 mi Calm Calm - N/A   Overcast
2:55 PM 36.0 °F 33.3 °F 30.9 °F 82% 29.84 in 10.0 mi NNW 3.5 mph - N/A   Overcast
3:42 PM 35.6 °F - 30.2 °F 81% 29.79 in 10.0 mi Calm Calm - N/A   Overcast
3:55 PM 36.0 °F 33.3 °F 30.9 °F 82% 29.84 in 10.0 mi NNW 3.5 mph - 0.00 in Rain Light Rain
4:55 PM 35.1 °F 31.0 °F 30.9 °F 85% 29.83 in 10.0 mi NW 4.6 mph - 0.00 in   Overcast
5:55 PM 34.0 °F 29.8 °F 30.9 °F 89% 29.83 in 10.0 mi West 4.6 mph - N/A   Overcast
6:55 PM 34.0 °F 28.8 °F 30.9 °F 89% 29.82 in 10.0 mi West 5.8 mph - N/A   Overcast
7:55 PM 34.0 °F 31.0 °F 32.0 °F 92% 29.81 in 10.0 mi SW 3.5 mph - N/A   Overcast
8:55 PM 35.1 °F 32.2 °F 32.0 °F 89% 29.81 in 10.0 mi SW 3.5 mph - N/A   Overcast
9:55 PM 36.0 °F 30.3 °F 32.0 °F 86% 29.80 in 10.0 mi WSW 6.9 mph - N/A   Overcast
10:55 PM 35.1 °F 28.6 °F 32.0 °F 89% 29.78 in 10.0 mi West 8.1 mph - N/A   Overcast
11:55 PM 35.1 °F 27.4 °F 32.0 °F 89% 29.76 in 10.0 mi West 10.4 mph - N/A   Overcast